TimeMDT,TemperatureF,Dew PointF,Humidity,Sea Level PressureIn,VisibilityMPH,Wind Direction,Wind SpeedMPH,Gust SpeedMPH,PrecipitationIn,Events,Conditions,WindDirDegrees,DateUTC
12:56 AM,45.0,37.0,74,30.12,-9999.0,NW,3.5,-,N/A,,Unknown,310,2013-07-15 06:56:00
1:56 AM,44.1,37.0,76,30.11,-9999.0,Calm,Calm,-,N/A,,Unknown,0,2013-07-15 07:56:00
2:56 AM,42.1,37.0,82,30.12,-9999.0,Calm,Calm,-,N/A,,Unknown,0,2013-07-15 08:56:00
3:56 AM,41.0,36.0,82,30.13,-9999.0,Calm,Calm,-,N/A,,Unknown,0,2013-07-15 09:56:00
4:56 AM,39.9,36.0,86,30.14,-9999.0,NW,3.5,-,N/A,,Unknown,310,2013-07-15 10:56:00
5:56 AM,39.0,36.0,89,30.14,-9999.0,Calm,Calm,-,N/A,,Unknown,0,2013-07-15 11:56:00
6:56 AM,41.0,37.0,86,30.13,-9999.0,Calm,Calm,-,N/A,,Unknown,0,2013-07-15 12:56:00
7:56 AM,52.0,44.1,74,30.11,-9999.0,Calm,Calm,-,N/A,,Unknown,0,2013-07-15 13:56:00
8:56 AM,57.9,48.0,70,30.13,-9999.0,Variable,3.5,-,N/A,,Unknown,0,2013-07-15 14:56:00
9:56 AM,61.0,46.9,60,30.13,-9999.0,Calm,Calm,-,N/A,,Unknown,0,2013-07-15 15:56:00
10:56 AM,64.9,42.1,43,30.12,-9999.0,ESE,4.6,-,N/A,,Unknown,110,2013-07-15 16:56:00
11:56 AM,69.1,44.1,40,30.09,-9999.0,East,6.9,-,N/A,,Unknown,80,2013-07-15 17:56:00
12:56 PM,71.1,34.0,26,30.09,-9999.0,Variable,4.6,-,N/A,,Unknown,0,2013-07-15 18:56:00
1:56 PM,73.0,41.0,31,30.07,-9999.0,ESE,8.1,-,N/A,,Unknown,110,2013-07-15 19:56:00
2:56 PM,71.1,45.0,39,30.08,-9999.0,Calm,Calm,-,N/A,,Unknown,0,2013-07-15 20:56:00
3:56 PM,73.0,36.0,26,30.07,-9999.0,Calm,Calm,-,N/A,,Unknown,0,2013-07-15 21:56:00
4:56 PM,78.1,32.0,19,30.03,-9999.0,Calm,Calm,-,N/A,,Unknown,0,2013-07-15 22:56:00
5:56 PM,75.9,36.0,23,30.03,-9999.0,Variable,3.5,-,N/A,,Unknown,0,2013-07-15 23:56:00
6:56 PM,73.0,42.1,33,30.03,-9999.0,Variable,4.6,-,N/A,,Unknown,0,2013-07-16 00:56:00
7:56 PM,66.0,44.1,45,30.01,-9999.0,Calm,Calm,-,N/A,,Unknown,0,2013-07-16 01:56:00
8:56 PM,61.0,44.1,54,30.02,-9999.0,Calm,Calm,-,N/A,,Unknown,0,2013-07-16 02:56:00
9:56 PM,57.9,43.0,58,30.04,-9999.0,Calm,Calm,-,N/A,,Unknown,0,2013-07-16 03:56:00
10:56 PM,55.9,42.1,60,30.04,-9999.0,Calm,Calm,-,N/A,,Unknown,0,2013-07-16 04:56:00
11:56 PM,53.1,39.9,61,30.04,-9999.0,Calm,Calm,-,N/A,,Unknown,0,2013-07-16 05:56:00